sat.trackr.live / text

‹ back to catalog

SERVIS 2

NORAD 36588 · 2010-023A

PAYLOAD ACTIVE UNKNOWN

§ Identity

Operator
Country
JPN
Launch date
2010-06-02
Launch site
PLMSC
Launch vehicle
Mass (kg)
RCS (m²)
2.66

External: N2YO · Heavens-Above · Gunter

§ Orbital elements

Epoch: 2026-09-20T00:47:57.680736Z

Period
109.42 min
Inclination
100.4285°
Eccentricity
0.0017885
Mean motion
13.16058305 rev/d
Perigee alt
1,186.3 km
Apogee alt
1,213.4 km
Semi-major
7,578.0 km
B*
1.0296e-4
RAAN
89.3658°
Arg perigee
59.5162°
Mean anomaly
92.1869°
Rev number
78,324

§ Raw data

SERVIS 21 36588U 10023A   26263.03330649 -.00000005  00000+0  10296-3 0  99992 36588 100.4285  89.3658 0017885  59.5162  92.1869 13.16058305783249

JSON: /api/v1/satellites/36588 · /tle

For live sub-satellite position, see the globe view (requires WebGL).

§ Visibility from observer

Set your observer location to see the next 7 days of passes ≥ 10°. The values pass through the URL so the page stays shareable.

No JS? Fill the form by hand. The geolocation button needs JavaScript.